Flag for Canada Weather past 2 weeks in Aklavik, Northwest Territories, Canada

Now
41 °F

More clouds than sun.


Feels Like: 39 °F
Forecast: 33 / 52 °F
Wind: 3 mph from Northeast

Location: Inuvik

Current Time: Aug 30, 2014 at 11:32:58 PM

Latest Report: Aug 30, 2014 at 11:00 PM


Visibility: 15 mi

Pressure: 29.72 "Hg

Humidity: 76%

Dew point: 34 °F

Location of AklavikLocation

Historic Weather in Aklavik — Graph

°F

Aklavik temperature yesterday

Maximum temperature yesterday: 68 °F (at 3:00 PM)
Minimum temperature yesterday: 45 °F (at 10:00 PM)
Average temperature yesterday: 54 °F

Past Weeks' High & Low Weather Summary

 TemperatureHumidityPressure
High68 °F (Aug 29, 3:00 PM)100% (Aug 16, 11:00 AM)30.21 "Hg (Aug 16, 11:00 AM)
Low37 °F (Aug 26, 8:00 AM)37% (Aug 28, 6:00 PM)29.43 "Hg (Aug 29, 5:00 PM)
Average51 °F79%29.84 "Hg
* Reported Aug 15 10:00 PM — Aug 30 10:00 PM, Aklavik, Weather by CustomWeather, © 2014

Note: Actual official high and low records may vary slightly from our data, if they occured in-between our weather recording intervals... More about our weather records

Advertising

Aklavik weather history for previous 24 hours

 ConditionsComfort  
Time TempWeatherWind HumidityBarometerVisibility
10:00 PM
Aug 30
41 °FPartly sunny.5 mph76%29.72 "Hg15 mi
9:00 PM43 °FBroken clouds.7 mph71%29.71 "Hg15 mi
8:00 PM43 °FPartly sunny.8 mph71%29.71 "Hg15 mi
7:00 PM43 °FPartly sunny.8 mph76%29.71 "Hg15 mi
6:00 PM43 °FOvercast.8 mph76%29.71 "Hg15 mi
5:00 PM43 °FOvercast.8 mph76%29.70 "Hg15 mi
4:00 PM41 °FOvercast.9 mph81%29.69 "Hg15 mi
3:00 PM41 °FMostly cloudy.10 mph87%29.69 "Hg15 mi
2:50 PM41 °FMostly cloudy.10 mph87%29.69 "Hg15 mi
2:00 PM41 °FDrizzle. Overcast.10 mph87%29.68 "Hg10 mi
1:00 PM41 °FLight rain. Mostly cloudy.7 mph87%29.66 "Hg10 mi
12:00 PM39 °FOvercast.9 mph93%29.65 "Hg15 mi
11:00 AM39 °FLight rain. Low clouds.8 mph93%29.65 "Hg10 mi
10:00 AM39 °FLight rain. Low clouds.8 mph93%29.64 "Hg5 mi
9:00 AM39 °FLight rain. Low clouds.9 mph93%29.63 "Hg8 mi
8:00 AM39 °FLight rain. Low clouds.9 mph93%29.62 "Hg8 mi
7:00 AM39 °FLight rain. Low clouds.8 mph93%29.62 "Hg8 mi
6:00 AM39 °FOvercast.8 mph93%29.61 "Hg15 mi
5:00 AM39 °FLight rain. Mostly cloudy.14 mph93%29.58 "Hg8 mi
4:00 AM41 °FLight rain. Mostly cloudy.8 mph93%29.59 "Hg8 mi
3:01 AM41 °FRain. Fog.7 mph93%29.59 "Hg4 mi
2:49 AM41 °FLight rain. Fog.9 mph93%29.59 "Hg6 mi
2:00 AM43 °FOvercast.8 mph87%29.57 "Hg15 mi
1:00 AM43 °FOvercast.10 mph87%29.57 "Hg15 mi
12:00 AM43 °FOvercast.17 mph87%29.56 "Hg10 mi
11:00 PM
Aug 29
45 °FOvercast.9 mph81%29.55 "Hg10 mi
Weather by CustomWeather, © 2014

See weather overviewHow to use our weather pages